When you browse on this site, cookies collect data to enhance your experience and personalize the content and advertising you see.
Visit our Privacy Policy to learn more. By continuing to use the site, you agree to this use of cookies and data.
  • en Belgique
  • Liste des pays
  • À 7 jours
  • Température de l'eau
  • Carte météo
  • Widgets météo
  • user-avatar
    Se connecter

    Météo par heure à Dunkerque

    Ce jour, 24 Janvier, Vendredi

    Heure Température Précipitation Vent Pression Humidité
    00:00 -1°C° 0 mm 2 m/s 769 mmHg 90%
    01:00 -1°C° 0 mm 2 m/s 769 mmHg 90%
    02:00 +1°C° 0 mm 1 m/s 768 mmHg 91%
    03:00 +1°C° 0 mm 1 m/s 768 mmHg 91%
    04:00 +1°C° 0 mm 1 m/s 768 mmHg 91%
    05:00 -1°C° 0 mm 2 m/s 768 mmHg 91%
    06:00 -1°C° 0 mm 3 m/s 767 mmHg 93%
    07:00 -1°C° 0 mm 2 m/s 767 mmHg 91%
    08:00 -1°C° 0 mm 2 m/s 767 mmHg 88%
    09:00 +2°C° 0 mm 1 m/s 767 mmHg 86%
    10:00 +3°C° 0 mm 1 m/s 767 mmHg 81%
    11:00 +4°C° 0 mm 1 m/s 767 mmHg 76%
    12:00 +5°C° 0 mm 1 m/s 767 mmHg 71%
    13:00 +5°C° 0 mm 1 m/s 767 mmHg 71%
    14:00 +6°C° 0 mm 1 m/s 766 mmHg 71%
    15:00 +6°C° 0 mm 1 m/s 766 mmHg 72%
    16:00 +5°C° 0 mm 1 m/s 766 mmHg 75%
    17:00 +4°C° 0 mm 1 m/s 766 mmHg 79%
    18:00 +3°C° 0 mm 1 m/s 766 mmHg 82%
    19:00 +3°C° 0 mm 1 m/s 766 mmHg 83%
    20:00 +1°C° 0 mm 2 m/s 766 mmHg 84%
    21:00 +1°C° 0 mm 2 m/s 766 mmHg 84%
    22:00 +1°C° 0 mm 2 m/s 766 mmHg 83%
    23:00 +1°C° 0 mm 2 m/s 766 mmHg 82%

    Demain, 25 Janvier, Samedi

    Heure Température Précipitation Vent Pression Humidité
    00:00 +1°C° 0 mm 2 m/s 766 mmHg 81%
    01:00 +1°C° 0 mm 2 m/s 766 mmHg 80%
    02:00 +1°C° 0 mm 2 m/s 765 mmHg 78%
    03:00 +1°C° 0 mm 2 m/s 765 mmHg 77%
    04:00 +1°C° 0 mm 2 m/s 765 mmHg 79%
    05:00 +1°C° 0 mm 2 m/s 765 mmHg 80%
    06:00 +1°C° 0 mm 2 m/s 765 mmHg 82%
    07:00 +1°C° 0 mm 2 m/s 765 mmHg 84%
    08:00 +2°C° 0 mm 2 m/s 765 mmHg 86%
    09:00 +2°C° 0 mm 2 m/s 765 mmHg 88%
    10:00 +4°C° 0 mm 2 m/s 765 mmHg 85%
    11:00 +4°C° 0 mm 3 m/s 764 mmHg 82%
    12:00 +7°C° 0 mm 3 m/s 764 mmHg 79%
    13:00 +7°C° 0 mm 3 m/s 764 mmHg 81%
    14:00 +7°C° 0 mm 3 m/s 763 mmHg 83%
    15:00 +7°C° 0 mm 3 m/s 763 mmHg 85%
    16:00 +5°C° 0 mm 3 m/s 763 mmHg 87%
    17:00 +4°C° 0 mm 4 m/s 763 mmHg 89%
    18:00 +3°C° 0 mm 4 m/s 762 mmHg 92%
    19:00 +3°C° 0 mm 4 m/s 762 mmHg 92%
    20:00 +3°C° 0 mm 4 m/s 763 mmHg 92%
    21:00 +3°C° 0 mm 4 m/s 763 mmHg 92%
    22:00 +3°C° 0 mm 4 m/s 762 mmHg 92%
    23:00 +1°C° 0 mm 4 m/s 762 mmHg 92%

    Après-demain, 26 Janvier, Dimanche

    Heure Température Précipitation Vent Pression Humidité
    00:00 +1°C° 0 mm 4 m/s 761 mmHg 92%
    01:00 +1°C° 0 mm 4 m/s 761 mmHg 92%
    02:00 +1°C° 0 mm 4 m/s 761 mmHg 93%
    03:00 +1°C° 0 mm 4 m/s 761 mmHg 93%
    04:00 +1°C° 0 mm 5 m/s 760 mmHg 93%
    05:00 +1°C° 0 mm 5 m/s 760 mmHg 94%
    06:00 +1°C° 0 mm 5 m/s 760 mmHg 94%
    07:00 +1°C° 0 mm 5 m/s 760 mmHg 93%
    08:00 +2°C° 0 mm 6 m/s 760 mmHg 92%
    09:00 +2°C° 0 mm 6 m/s 760 mmHg 92%
    10:00 +4°C° 0 mm 6 m/s 760 mmHg 89%
    11:00 +5°C° 0 mm 6 m/s 760 mmHg 86%
    12:00 +7°C° 0 mm 6 m/s 759 mmHg 83%
    13:00 +7°C° 0 mm 6 m/s 759 mmHg 83%
    14:00 +6°C° 0 mm 7 m/s 759 mmHg 83%
    15:00 +6°C° 0 mm 7 m/s 758 mmHg 83%
    16:00 +6°C° 0 mm 7 m/s 758 mmHg 85%
    17:00 +5°C° 0 mm 7 m/s 758 mmHg 87%
    18:00 +4°C° 0 mm 7 m/s 758 mmHg 89%
    19:00 +5°C° 0 mm 8 m/s 757 mmHg 87%
    20:00 +5°C° 0 mm 8 m/s 757 mmHg 85%
    21:00 +6°C° 0 mm 9 m/s 757 mmHg 83%
    22:00 +6°C° 0.3 mm 9 m/s 756 mmHg 85%
    23:00 +6°C° 0.3 mm 10 m/s 756 mmHg 87%

    27 Janvier, Lundi

    Heure Température Précipitation Vent Pression Humidité
    00:00 +6°C° 0.3 mm 10 m/s 755 mmHg 89%
    01:00 +6°C° 0.6 mm 10 m/s 754 mmHg 89%
    02:00 +6°C° 0.6 mm 11 m/s 754 mmHg 88%
    03:00 +7°C° 0.6 mm 11 m/s 753 mmHg 88%
    04:00 +7°C° 0.7 mm 10 m/s 753 mmHg 89%
    05:00 +7°C° 0.7 mm 9 m/s 753 mmHg 90%
    06:00 +7°C° 0.7 mm 8 m/s 753 mmHg 90%
    07:00 +6°C° 0.1 mm 7 m/s 753 mmHg 88%
    08:00 +6°C° 0.1 mm 7 m/s 753 mmHg 86%
    09:00 +7°C° 0.1 mm 6 m/s 754 mmHg 84%
    10:00 +6°C° 0.1 mm 7 m/s 753 mmHg 81%
    11:00 +8°C° 0.1 mm 7 m/s 753 mmHg 78%
    12:00 +7°C° 0.1 mm 8 m/s 753 mmHg 76%
    13:00 +7°C° 0.1 mm 8 m/s 752 mmHg 76%
    14:00 +8°C° 0.1 mm 7 m/s 751 mmHg 76%
    15:00 +8°C° 0.1 mm 7 m/s 751 mmHg 77%
    16:00 +8°C° 0.7 mm 7 m/s 750 mmHg 81%
    17:00 +7°C° 0.7 mm 6 m/s 749 mmHg 86%
    18:00 +7°C° 0.7 mm 6 m/s 749 mmHg 90%
    19:00 +5°C° 0.1 mm 6 m/s 748 mmHg 90%
    20:00 +5°C° 0.1 mm 6 m/s 747 mmHg 90%
    21:00 +4°C° 0.1 mm 7 m/s 746 mmHg 89%
    22:00 +4°C° 0.3 mm 7 m/s 745 mmHg 90%
    23:00 +5°C° 0.3 mm 7 m/s 744 mmHg 91%

    28 Janvier, Mardi

    Heure Température Précipitation Vent Pression Humidité
    00:00 +5°C° 0.3 mm 7 m/s 743 mmHg 91%
    01:00 +5°C° 1 mm 8 m/s 743 mmHg 89%
    02:00 +5°C° 1 mm 8 m/s 743 mmHg 87%
    03:00 +5°C° 1 mm 9 m/s 742 mmHg 84%
    04:00 +5°C° 0.3 mm 8 m/s 743 mmHg 83%
    05:00 +4°C° 0.3 mm 8 m/s 743 mmHg 81%
    06:00 +4°C° 0.3 mm 8 m/s 744 mmHg 80%
    07:00 +4°C° 0.1 mm 8 m/s 744 mmHg 78%
    08:00 +3°C° 0.1 mm 9 m/s 744 mmHg 76%
    09:00 +3°C° 0.1 mm 9 m/s 745 mmHg 74%
    10:00 +3°C° 0 mm 10 m/s 745 mmHg 69%
    11:00 +3°C° 0 mm 10 m/s 746 mmHg 64%
    12:00 +4°C° 0 mm 11 m/s 746 mmHg 59%
    13:00 +4°C° 0.2 mm 11 m/s 746 mmHg 62%
    14:00 +4°C° 0.2 mm 12 m/s 746 mmHg 64%
    15:00 +4°C° 0.2 mm 12 m/s 746 mmHg 67%
    16:00 +3°C° 0.4 mm 12 m/s 746 mmHg 69%
    17:00 +3°C° 0.4 mm 12 m/s 746 mmHg 70%
    18:00 +3°C° 0.4 mm 12 m/s 746 mmHg 71%
    19:00 +3°C° 0.3 mm 11 m/s 746 mmHg 72%
    20:00 +2°C° 0.3 mm 11 m/s 746 mmHg 72%
    21:00 +2°C° 0.3 mm 11 m/s 746 mmHg 73%
    22:00 +2°C° 0.1 mm 11 m/s 746 mmHg 71%
    23:00 +2°C° 0.1 mm 11 m/s 747 mmHg 69%

    29 Janvier, Mercredi

    Heure Température Précipitation Vent Pression Humidité
    00:00 0°C° 0.1 mm 12 m/s 747 mmHg 68%
    01:00 0°C° 0 mm 12 m/s 748 mmHg 67%
    02:00 0°C° 0 mm 12 m/s 748 mmHg 67%
    03:00 0°C° 0 mm 12 m/s 749 mmHg 66%
    04:00 -1°C° 0 mm 11 m/s 749 mmHg 67%
    05:00 0°C° 0 mm 10 m/s 750 mmHg 67%
    06:00 0°C° 0 mm 9 m/s 751 mmHg 67%
    07:00 0°C° 0 mm 9 m/s 751 mmHg 68%
    08:00 +1°C° 0 mm 9 m/s 751 mmHg 69%
    09:00 +1°C° 0 mm 8 m/s 752 mmHg 70%
    10:00 +2°C° 0.1 mm 9 m/s 752 mmHg 68%
    11:00 +3°C° 0.1 mm 10 m/s 752 mmHg 66%
    12:00 +4°C° 0.1 mm 11 m/s 752 mmHg 64%
    13:00 +4°C° 0.1 mm 11 m/s 751 mmHg 68%
    14:00 +3°C° 0.1 mm 11 m/s 751 mmHg 72%
    15:00 +3°C° 0.1 mm 10 m/s 751 mmHg 76%
    16:00 +3°C° 0 mm 10 m/s 751 mmHg 75%
    17:00 +3°C° 0 mm 9 m/s 751 mmHg 74%
    18:00 +2°C° 0 mm 9 m/s 752 mmHg 72%
    19:00 +2°C° 0 mm 9 m/s 752 mmHg 73%
    20:00 +2°C° 0 mm 9 m/s 753 mmHg 73%
    21:00 +1°C° 0 mm 9 m/s 753 mmHg 73%
    22:00 +1°C° 0 mm 8 m/s 754 mmHg 74%
    23:00 +1°C° 0 mm 8 m/s 754 mmHg 74%
    Voir plus